Location: Asheville, NC
(35.6000°N, 82.5500°W)
Time: 01:28:35
(UTC-05:00)

Vanguard 1 - Pass Details

Date: 15 February 2018
Orbit: 650 x 3833 km, 34.2° (Epoch: 23 February)

Event Time Altitude Azimuth Distance (km) Brightness Sun altitude
Rises 19:19:36 0° 270° (W) 4,009 15.1 -14.3°
Reaches altitude 10° 19:22:51 10° 269° (W) 2,694 13.7 -15.0°
Maximum altitude 19:28:42 77° 185° (S) 743 9.4 -16.1°
Enters shadow 19:31:03 28° 103° (ESE) 1,242 10.0 -16.6°
